Time,TemperatureF,DewpointF,PressureIn,WindDirection,WindDirectionDegrees,WindSpeedMPH,WindSpeedGustMPH,Humidity,HourlyPrecipIn,Conditions,Clouds,dailyrainin,SoftwareType,DateUTC
2013-10-20 00:00:00,64.4,58.5,29.89,WNW,301,0.0,0.0,81,0.00,,OVC060,0.01,VWS V14.01,2013-10-20 04:00:00,
2013-10-20 00:01:00,64.3,58.3,29.89,WNW,301,0.0,0.0,81,0.00,,OVC060,0.00,VWS V14.01,2013-10-20 04:01:00,
2013-10-20 00:06:00,64.2,57.9,29.89,WNW,300,0.0,0.0,80,0.00,,OVC060,0.00,VWS V14.01,2013-10-20 04:06:00,
2013-10-20 00:11:00,64.1,57.8,29.89,WNW,301,0.0,0.0,80,0.00,,OVC060,0.00,VWS V14.01,2013-10-20 04:11:00,
2013-10-20 00:15:00,64.1,57.5,29.89,WNW,301,0.0,0.0,79,0.00,,OVC060,0.00,VWS V14.01,2013-10-20 04:15:00,
2013-10-20 00:16:00,64.1,57.5,29.89,WNW,300,0.0,0.0,79,0.00,,OVC060,0.00,VWS V14.01,2013-10-20 04:16:00,
2013-10-20 00:21:00,64.0,57.7,29.89,WNW,301,0.0,0.0,80,0.00,,OVC060,0.00,VWS V14.01,2013-10-20 04:21:00,
2013-10-20 00:26:00,64.0,57.4,29.89,WNW,301,0.0,0.0,79,0.00,,OVC060,0.00,VWS V14.01,2013-10-20 04:26:00,
2013-10-20 00:30:00,63.9,57.3,29.89,WNW,301,0.0,0.0,79,0.00,,OVC060,0.00,VWS V14.01,2013-10-20 04:30:00,
2013-10-20 00:31:00,63.9,56.9,29.89,WNW,300,0.0,0.0,78,0.00,,OVC060,0.00,VWS V14.01,2013-10-20 04:31:00,
2013-10-20 00:36:00,63.8,56.8,29.89,WNW,301,0.0,0.0,78,0.00,,OVC060,0.00,VWS V14.01,2013-10-20 04:36:00,
2013-10-20 00:41:00,63.8,57.5,29.89,WNW,300,0.0,0.0,80,0.00,,OVC060,0.00,VWS V14.01,2013-10-20 04:41:00,
2013-10-20 00:45:00,63.8,57.5,29.89,WNW,300,0.0,0.0,80,0.00,,OVC060,0.00,VWS V14.01,2013-10-20 04:45:00,
2013-10-20 00:46:00,63.8,57.2,29.89,WNW,301,0.0,0.0,79,0.00,,OVC060,0.00,VWS V14.01,2013-10-20 04:46:00,
2013-10-20 00:51:00,63.7,57.1,29.89,WNW,301,0.0,0.0,79,0.00,,OVC060,0.00,VWS V14.01,2013-10-20 04:51:00,
2013-10-20 00:56:00,63.7,57.1,29.89,WNW,301,0.0,0.0,79,0.00,,OVC060,0.00,VWS V14.01,2013-10-20 04:56:00,
2013-10-20 01:00:00,63.7,57.4,29.89,WNW,301,0.0,0.0,80,0.00,,OVC060,0.00,VWS V14.01,2013-10-20 05:00:00,
2013-10-20 01:01:00,63.7,57.4,29.89,WNW,301,0.0,0.0,80,0.00,,OVC060,0.00,VWS V14.01,2013-10-20 05:01:00,
2013-10-20 01:06:00,63.7,56.7,29.89,WNW,300,0.0,0.0,78,0.00,,OVC060,0.00,VWS V14.01,2013-10-20 05:06:00,
2013-10-20 01:11:00,63.7,57.1,29.89,WNW,301,0.0,0.0,79,0.00,,OVC060,0.00,VWS V14.01,2013-10-20 05:11:00,
2013-10-20 01:15:00,63.6,56.6,29.89,WNW,301,0.0,0.0,78,0.00,,OVC060,0.00,VWS V14.01,2013-10-20 05:15:00,
2013-10-20 01:16:00,63.6,57.0,29.89,WNW,301,0.0,0.0,79,0.00,,OVC060,0.00,VWS V14.01,2013-10-20 05:16:00,
2013-10-20 01:21:00,63.6,57.0,29.88,WNW,301,0.0,0.0,79,0.00,,OVC060,0.00,VWS V14.01,2013-10-20 05:21:00,
2013-10-20 01:26:00,63.6,57.3,29.89,WNW,300,0.0,0.0,80,0.00,,OVC060,0.00,VWS V14.01,2013-10-20 05:26:00,
2013-10-20 01:30:00,63.5,57.2,29.89,WNW,301,0.0,0.0,80,0.00,,OVC060,0.00,VWS V14.01,2013-10-20 05:30:00,
2013-10-20 01:31:00,63.5,57.2,29.89,WNW,301,0.0,0.0,80,0.00,,OVC060,0.00,VWS V14.01,2013-10-20 05:31:00,
2013-10-20 01:36:00,63.4,57.1,29.89,WNW,301,0.0,0.0,80,0.00,,OVC060,0.00,VWS V14.01,2013-10-20 05:36:00,
2013-10-20 01:41:00,63.3,57.0,29.88,WNW,301,0.0,0.0,80,0.00,,OVC060,0.00,VWS V14.01,2013-10-20 05:41:00,
2013-10-20 01:45:00,63.3,57.0,29.89,WNW,301,0.0,0.0,80,0.00,,OVC060,0.00,VWS V14.01,2013-10-20 05:45:00,
2013-10-20 01:46:00,63.2,56.9,29.89,WNW,301,0.0,0.0,80,0.00,,OVC060,0.00,VWS V14.01,2013-10-20 05:46:00,
2013-10-20 01:51:00,63.2,56.9,29.89,WNW,300,0.0,0.0,80,0.00,,OVC060,0.00,VWS V14.01,2013-10-20 05:51:00,
2013-10-20 01:56:00,63.2,56.9,29.88,WNW,301,0.0,0.0,80,0.00,,OVC060,0.00,VWS V14.01,2013-10-20 05:56:00,
2013-10-20 02:00:00,63.2,57.3,29.88,WNW,300,0.0,0.0,81,0.00,,OVC060,0.00,VWS V14.01,2013-10-20 06:00:00,
2013-10-20 02:01:00,63.2,57.6,29.89,WNW,301,0.0,0.0,82,0.00,,OVC060,0.00,VWS V14.01,2013-10-20 06:01:00,
2013-10-20 02:06:00,63.1,57.2,29.89,WNW,301,0.0,0.0,81,0.00,,OVC060,0.00,VWS V14.01,2013-10-20 06:06:00,
2013-10-20 02:12:00,63.0,57.1,29.89,WNW,301,0.0,0.0,81,0.00,,OVC060,0.00,VWS V14.01,2013-10-20 06:12:00,
2013-10-20 02:15:00,63.0,57.4,29.89,WNW,301,0.0,0.0,82,0.00,,OVC060,0.00,VWS V14.01,2013-10-20 06:15:00,
2013-10-20 02:17:00,63.0,57.4,29.89,WNW,301,0.0,0.0,82,0.00,,OVC060,0.00,VWS V14.01,2013-10-20 06:17:00,
2013-10-20 02:22:00,62.9,57.3,29.89,WNW,301,0.0,0.0,82,0.00,,OVC060,0.00,VWS V14.01,2013-10-20 06:22:00,
2013-10-20 02:27:00,62.9,57.3,29.89,WNW,300,0.0,0.0,82,0.00,,OVC060,0.00,VWS V14.01,2013-10-20 06:27:00,
2013-10-20 02:30:00,62.8,57.6,29.89,WNW,300,0.0,0.0,83,0.00,,OVC060,0.00,VWS V14.01,2013-10-20 06:30:00,
2013-10-20 02:32:00,62.8,57.6,29.89,WNW,301,0.0,0.0,83,0.00,,OVC060,0.00,VWS V14.01,2013-10-20 06:32:00,
2013-10-20 02:37:00,62.8,57.2,29.89,WNW,301,0.0,0.0,82,0.00,,OVC060,0.00,VWS V14.01,2013-10-20 06:37:00,
2013-10-20 02:42:00,62.7,57.1,29.89,WNW,301,0.0,0.0,82,0.00,,OVC060,0.00,VWS V14.01,2013-10-20 06:42:00,
2013-10-20 02:45:00,62.7,57.1,29.89,WNW,301,0.0,0.0,82,0.00,,OVC060,0.00,VWS V14.01,2013-10-20 06:45:00,
2013-10-20 02:47:00,62.7,57.1,29.89,WNW,301,0.0,0.0,82,0.00,,OVC060,0.00,VWS V14.01,2013-10-20 06:47:00,
2013-10-20 02:52:00,62.7,57.5,29.89,WNW,301,0.0,0.0,83,0.00,,OVC060,0.00,VWS V14.01,2013-10-20 06:52:00,
2013-10-20 02:57:00,62.7,57.5,29.89,WNW,301,0.0,0.0,83,0.00,,OVC060,0.00,VWS V14.01,2013-10-20 06:57:00,
2013-10-20 03:00:00,62.6,57.4,29.89,WNW,301,0.0,0.0,83,0.00,,OVC060,0.00,VWS V14.01,2013-10-20 07:00:00,
2013-10-20 03:02:00,62.7,57.5,29.89,WNW,300,0.0,0.0,83,0.00,,OVC060,0.00,VWS V14.01,2013-10-20 07:02:00,
2013-10-20 03:07:00,62.6,58.0,29.89,WNW,301,0.0,0.0,85,0.00,,OVC060,0.00,VWS V14.01,2013-10-20 07:07:00,
2013-10-20 03:12:00,62.5,57.3,29.89,WNW,301,0.0,0.0,83,0.00,,OVC060,0.00,VWS V14.01,2013-10-20 07:12:00,
2013-10-20 03:15:00,62.5,57.3,29.89,WNW,300,0.0,0.0,83,0.00,,OVC060,0.00,VWS V14.01,2013-10-20 07:15:00,
2013-10-20 03:17:00,62.5,57.3,29.89,WNW,300,0.0,0.0,83,0.00,,OVC060,0.00,VWS V14.01,2013-10-20 07:17:00,
2013-10-20 03:22:00,62.5,57.3,29.89,WNW,301,0.0,0.0,83,0.00,,OVC060,0.00,VWS V14.01,2013-10-20 07:22:00,
2013-10-20 03:27:00,62.5,57.3,29.89,WNW,300,0.0,0.0,83,0.00,,OVC060,0.00,VWS V14.01,2013-10-20 07:27:00,
2013-10-20 03:30:00,62.5,57.3,29.89,WNW,301,0.0,0.0,83,0.00,,OVC060,0.00,VWS V14.01,2013-10-20 07:30:00,
2013-10-20 03:32:00,62.5,57.3,29.89,WNW,301,0.0,0.0,83,0.00,,OVC060,0.00,VWS V14.01,2013-10-20 07:32:00,
2013-10-20 03:37:00,62.5,57.3,29.89,WNW,300,0.0,0.0,83,0.00,,OVC060,0.00,VWS V14.01,2013-10-20 07:37:00,
2013-10-20 03:42:00,62.4,57.2,29.89,WNW,301,0.0,0.0,83,0.00,,OVC060,0.00,VWS V14.01,2013-10-20 07:42:00,
2013-10-20 03:45:00,62.3,57.1,29.89,WNW,300,0.0,0.0,83,0.00,,OVC060,0.00,VWS V14.01,2013-10-20 07:45:00,
2013-10-20 03:47:00,62.3,57.4,29.89,WNW,300,0.0,0.0,84,0.00,,OVC060,0.00,VWS V14.01,2013-10-20 07:47:00,
2013-10-20 03:52:00,62.2,57.3,29.88,WNW,301,0.0,0.0,84,0.00,,OVC060,0.00,VWS V14.01,2013-10-20 07:52:00,
2013-10-20 03:57:00,62.1,57.2,29.89,WNW,301,0.0,0.0,84,0.00,,OVC060,0.00,VWS V14.01,2013-10-20 07:57:00,
2013-10-20 04:00:00,62.1,57.2,29.88,WNW,301,0.0,0.0,84,0.00,,OVC060,0.00,VWS V14.01,2013-10-20 08:00:00,
2013-10-20 04:02:00,62.0,57.5,29.88,WNW,300,0.0,0.0,85,0.00,,OVC060,0.00,VWS V14.01,2013-10-20 08:02:00,
2013-10-20 04:07:00,61.8,57.2,29.88,WNW,301,0.0,0.0,85,0.00,,OVC060,0.00,VWS V14.01,2013-10-20 08:07:00,
2013-10-20 04:12:00,61.6,57.0,29.89,WNW,301,0.0,0.0,85,0.00,,OVC060,0.00,VWS V14.01,2013-10-20 08:12:00,
2013-10-20 04:15:00,61.5,57.0,29.89,WNW,301,0.0,0.0,85,0.00,,OVC060,0.00,VWS V14.01,2013-10-20 08:15:00,
2013-10-20 04:17:00,61.4,56.9,29.89,WNW,301,0.0,0.0,85,0.00,,OVC060,0.00,VWS V14.01,2013-10-20 08:17:00,
2013-10-20 04:22:00,61.2,57.0,29.89,WNW,300,0.0,0.0,86,0.00,,OVC060,0.00,VWS V14.01,2013-10-20 08:22:00,
2013-10-20 04:27:00,61.0,56.8,29.89,WNW,301,0.0,0.0,86,0.00,,OVC060,0.00,VWS V14.01,2013-10-20 08:27:00,
2013-10-20 04:30:00,60.9,56.7,29.89,WNW,301,0.0,0.0,86,0.00,,OVC060,0.00,VWS V14.01,2013-10-20 08:30:00,
2013-10-20 04:32:00,60.8,56.9,29.89,WNW,300,0.0,0.0,87,0.00,,OVC060,0.00,VWS V14.01,2013-10-20 08:32:00,
2013-10-20 04:37:00,60.7,56.8,29.89,WNW,301,0.0,0.0,87,0.00,,OVC060,0.00,VWS V14.01,2013-10-20 08:37:00,
2013-10-20 04:42:00,60.6,56.7,29.89,WNW,301,0.0,0.0,87,0.00,,OVC060,0.00,VWS V14.01,2013-10-20 08:42:00,
2013-10-20 04:45:00,60.5,56.9,29.89,WNW,301,0.0,0.0,88,0.00,,OVC060,0.00,VWS V14.01,2013-10-20 08:45:00,
2013-10-20 04:47:00,60.4,56.8,29.89,WNW,301,0.0,0.0,88,0.00,,OVC060,0.00,VWS V14.01,2013-10-20 08:47:00,
2013-10-20 04:52:00,60.4,56.8,29.89,WNW,301,0.0,0.0,88,0.00,,OVC060,0.00,VWS V14.01,2013-10-20 08:52:00,
2013-10-20 04:57:00,60.3,56.7,29.89,WNW,300,0.0,0.0,88,0.00,,OVC060,0.00,VWS V14.01,2013-10-20 08:57:00,
2013-10-20 05:00:00,60.3,56.7,29.89,WNW,301,0.0,0.0,88,0.00,,OVC060,0.00,VWS V14.01,2013-10-20 09:00:00,
2013-10-20 05:02:00,60.3,56.7,29.89,WNW,301,0.0,0.0,88,0.00,,OVC060,0.00,VWS V14.01,2013-10-20 09:02:00,
2013-10-20 05:08:00,60.3,57.0,29.90,WNW,300,0.0,0.0,89,0.00,,OVC060,0.00,VWS V14.01,2013-10-20 09:08:00,
2013-10-20 05:13:00,60.4,57.2,29.90,WNW,301,0.0,0.0,89,0.00,,OVC060,0.00,VWS V14.01,2013-10-20 09:13:00,
2013-10-20 05:15:00,60.4,57.2,29.90,WNW,301,0.0,0.0,89,0.00,,OVC060,0.00,VWS V14.01,2013-10-20 09:15:00,
2013-10-20 05:18:00,60.4,57.2,29.90,WNW,300,0.0,0.0,89,0.00,,OVC060,0.00,VWS V14.01,2013-10-20 09:18:00,
2013-10-20 05:23:00,60.4,57.5,29.90,WNW,301,0.0,0.0,90,0.00,,OVC060,0.00,VWS V14.01,2013-10-20 09:23:00,
2013-10-20 05:28:00,60.4,57.2,29.90,WNW,301,0.0,0.0,89,0.00,,OVC060,0.00,VWS V14.01,2013-10-20 09:28:00,
2013-10-20 05:30:00,60.4,57.2,29.90,WNW,301,0.0,0.0,89,0.00,,OVC060,0.00,VWS V14.01,2013-10-20 09:30:00,
2013-10-20 05:33:00,60.4,57.2,29.90,WNW,300,0.0,0.0,89,0.00,,OVC060,0.00,VWS V14.01,2013-10-20 09:33:00,
2013-10-20 05:38:00,60.4,57.5,29.90,WNW,301,0.0,0.0,90,0.00,,OVC060,0.00,VWS V14.01,2013-10-20 09:38:00,
2013-10-20 05:43:00,60.3,57.4,29.90,WNW,301,0.0,0.0,90,0.00,,OVC060,0.00,VWS V14.01,2013-10-20 09:43:00,
2013-10-20 05:45:00,60.2,57.3,29.91,WNW,301,0.0,0.0,90,0.00,,OVC060,0.00,VWS V14.01,2013-10-20 09:45:00,
2013-10-20 05:48:00,60.1,57.2,29.91,WNW,301,0.0,0.0,90,0.00,,OVC060,0.00,VWS V14.01,2013-10-20 09:48:00,
2013-10-20 05:53:00,60.0,57.1,29.91,WNW,300,0.0,0.0,90,0.00,,OVC060,0.00,VWS V14.01,2013-10-20 09:53:00,
2013-10-20 05:58:00,59.9,57.3,29.91,WNW,300,0.0,0.0,91,0.00,,OVC060,0.00,VWS V14.01,2013-10-20 09:58:00,
2013-10-20 06:00:00,59.9,57.3,29.91,WNW,300,0.0,0.0,91,0.00,,OVC060,0.00,VWS V14.01,2013-10-20 10:00:00,
2013-10-20 06:03:00,59.9,57.3,29.91,WNW,301,0.0,0.0,91,0.00,,OVC060,0.00,VWS V14.01,2013-10-20 10:03:00,
2013-10-20 06:08:00,59.8,57.2,29.91,WNW,301,0.0,0.0,91,0.00,,OVC060,0.00,VWS V14.01,2013-10-20 10:08:00,
2013-10-20 06:13:00,59.9,57.3,29.91,WNW,301,0.0,0.0,91,0.00,,OVC060,0.00,VWS V14.01,2013-10-20 10:13:00,
2013-10-20 06:15:00,59.9,57.3,29.91,WNW,301,0.0,0.0,91,0.00,,OVC060,0.00,VWS V14.01,2013-10-20 10:15:00,
2013-10-20 06:18:00,59.9,57.3,29.92,WNW,300,0.0,0.0,91,0.00,,OVC060,0.00,VWS V14.01,2013-10-20 10:18:00,
2013-10-20 06:23:00,59.9,57.3,29.92,WNW,301,0.0,0.0,91,0.00,,OVC060,0.00,VWS V14.01,2013-10-20 10:23:00,
2013-10-20 06:28:00,59.9,57.3,29.92,WNW,301,0.0,0.0,91,0.00,,OVC060,0.00,VWS V14.01,2013-10-20 10:28:00,
2013-10-20 06:30:00,59.8,57.2,29.92,WNW,301,0.0,0.0,91,0.00,,OVC060,0.00,VWS V14.01,2013-10-20 10:30:00,
2013-10-20 06:33:00,59.8,57.2,29.92,WNW,300,0.0,0.0,91,0.00,,OVC060,0.00,VWS V14.01,2013-10-20 10:33:00,
2013-10-20 06:38:00,59.7,57.1,29.92,WNW,301,0.0,0.0,91,0.00,,OVC060,0.00,VWS V14.01,2013-10-20 10:38:00,
2013-10-20 06:43:00,59.6,57.3,29.92,WNW,300,0.0,0.0,92,0.00,,OVC060,0.00,VWS V14.01,2013-10-20 10:43:00,
2013-10-20 06:45:00,59.6,57.3,29.92,WNW,301,0.0,0.0,92,0.00,,OVC060,0.00,VWS V14.01,2013-10-20 10:45:00,
2013-10-20 06:48:00,59.5,57.2,29.92,WNW,301,0.0,0.0,92,0.00,,OVC060,0.00,VWS V14.01,2013-10-20 10:48:00,
2013-10-20 06:53:00,59.5,57.2,29.92,WNW,301,0.0,0.0,92,0.00,,OVC060,0.00,VWS V14.01,2013-10-20 10:53:00,
2013-10-20 06:58:00,59.5,57.2,29.92,WNW,301,0.0,0.0,92,0.00,,OVC060,0.00,VWS V14.01,2013-10-20 10:58:00,
2013-10-20 07:00:00,59.5,57.2,29.92,WNW,301,0.0,0.0,92,0.00,,OVC060,0.00,VWS V14.01,2013-10-20 11:00:00,
2013-10-20 07:03:00,59.6,57.3,29.93,WNW,301,0.0,0.0,92,0.00,,OVC060,0.00,VWS V14.01,2013-10-20 11:03:00,
2013-10-20 07:08:00,59.7,57.4,29.93,WNW,300,0.0,0.0,92,0.00,,OVC060,0.00,VWS V14.01,2013-10-20 11:08:00,
2013-10-20 07:13:00,59.8,57.5,29.93,NNW,333,0.0,4.0,92,0.00,,OVC060,0.00,VWS V14.01,2013-10-20 11:13:00,
2013-10-20 07:15:00,59.8,57.5,29.93,NNW,330,0.0,4.0,92,0.00,,OVC060,0.00,VWS V14.01,2013-10-20 11:15:00,
2013-10-20 07:18:00,59.8,57.5,29.93,NNW,330,0.0,0.0,92,0.00,,OVC060,0.00,VWS V14.01,2013-10-20 11:18:00,
2013-10-20 07:23:00,59.9,57.6,29.93,North,355,0.0,4.0,92,0.00,,OVC060,0.00,VWS V14.01,2013-10-20 11:23:00,
2013-10-20 07:28:00,59.9,57.6,29.93,North,360,0.0,4.0,92,0.00,,OVC060,0.00,VWS V14.01,2013-10-20 11:28:00,
2013-10-20 07:30:00,59.9,57.6,29.93,West,270,0.0,4.0,92,0.00,,OVC060,0.00,VWS V14.01,2013-10-20 11:30:00,
2013-10-20 07:33:00,59.8,57.2,29.93,SW,236,0.0,4.0,91,0.00,,OVC060,0.00,VWS V14.01,2013-10-20 11:33:00,
2013-10-20 07:38:00,59.7,57.1,29.93,WSW,258,5.0,5.0,91,0.00,,OVC060,0.00,VWS V14.01,2013-10-20 11:38:00,
2013-10-20 07:43:00,59.7,57.1,29.93,NW,319,0.0,5.0,91,0.00,,OVC060,0.00,VWS V14.01,2013-10-20 11:43:00,
2013-10-20 07:45:00,59.6,57.0,29.93,NW,323,0.0,5.0,91,0.00,,OVC060,0.00,VWS V14.01,2013-10-20 11:45:00,
2013-10-20 07:48:00,59.6,56.7,29.94,North,11,0.0,7.0,90,0.00,,OVC060,0.00,VWS V14.01,2013-10-20 11:48:00,
2013-10-20 07:53:00,59.6,56.7,29.94,NW,314,0.0,7.0,90,0.00,,OVC060,0.00,VWS V14.01,2013-10-20 11:53:00,
2013-10-20 07:58:00,59.6,56.7,29.94,North,5,0.0,7.0,90,0.00,,OVC060,0.00,VWS V14.01,2013-10-20 11:58:00,
2013-10-20 08:00:00,59.6,56.7,29.94,North,5,0.0,7.0,90,0.00,,OVC060,0.00,VWS V14.01,2013-10-20 12:00:00,
2013-10-20 08:03:00,59.6,56.7,29.95,WNW,299,0.0,4.0,90,0.00,,OVC060,0.00,VWS V14.01,2013-10-20 12:03:00,
2013-10-20 08:08:00,59.6,56.7,29.95,WNW,300,0.0,4.0,90,0.00,,OVC060,0.00,VWS V14.01,2013-10-20 12:08:00,
2013-10-20 08:14:00,59.5,56.6,29.95,NW,321,0.0,4.0,90,0.00,,OVC060,0.00,VWS V14.01,2013-10-20 12:14:00,
2013-10-20 08:15:00,59.5,56.3,29.95,NNW,338,0.0,5.0,89,0.00,,OVC060,0.00,VWS V14.01,2013-10-20 12:15:00,
2013-10-20 08:19:00,59.5,56.3,29.95,NNW,339,0.0,1.0,89,0.00,,OVC060,0.00,VWS V14.01,2013-10-20 12:19:00,
2013-10-20 08:24:00,59.5,56.3,29.96,NW,313,1.0,4.0,89,0.00,,OVC060,0.00,VWS V14.01,2013-10-20 12:24:00,
2013-10-20 08:29:00,59.5,56.3,29.96,North,360,1.0,5.0,89,0.00,,OVC060,0.00,VWS V14.01,2013-10-20 12:29:00,
2013-10-20 08:30:00,59.5,56.3,29.96,North,5,0.0,5.0,89,0.00,,OVC060,0.00,VWS V14.01,2013-10-20 12:30:00,
2013-10-20 08:34:00,59.6,56.4,29.96,North,355,0.0,1.0,89,0.00,,OVC060,0.00,VWS V14.01,2013-10-20 12:34:00,
2013-10-20 08:39:00,59.8,56.2,29.97,NNW,329,0.0,2.0,88,0.00,,OVC060,0.00,VWS V14.01,2013-10-20 12:39:00,
2013-10-20 08:44:00,59.9,56.3,29.97,North,10,0.0,2.0,88,0.00,,OVC060,0.00,VWS V14.01,2013-10-20 12:44:00,
2013-10-20 08:45:00,60.0,56.4,29.97,NW,322,0.0,2.0,88,0.00,,OVC060,0.00,VWS V14.01,2013-10-20 12:45:00,
2013-10-20 08:49:00,60.0,56.1,29.97,NNW,330,0.0,4.0,87,0.00,,OVC060,0.00,VWS V14.01,2013-10-20 12:49:00,
2013-10-20 08:54:00,60.2,56.3,29.98,NW,324,0.0,5.0,87,0.00,,OVC060,0.00,VWS V14.01,2013-10-20 12:54:00,
2013-10-20 08:59:00,60.1,55.6,29.98,NNE,29,0.0,7.0,85,0.00,,OVC060,0.00,VWS V14.01,2013-10-20 12:59:00,
2013-10-20 09:00:00,60.1,55.6,29.98,NE,35,2.0,7.0,85,0.00,,OVC060,0.00,VWS V14.01,2013-10-20 13:00:00,
2013-10-20 09:04:00,60.0,55.5,29.98,NNW,331,1.0,2.0,85,0.00,,OVC060,0.00,VWS V14.01,2013-10-20 13:04:00,
2013-10-20 09:09:00,59.9,55.4,29.98,NW,316,2.0,5.0,85,0.00,,OVC060,0.00,VWS V14.01,2013-10-20 13:09:00,
2013-10-20 09:14:00,59.8,55.0,29.99,North,10,0.0,7.0,84,0.00,,OVC060,0.00,VWS V14.01,2013-10-20 13:14:00,
2013-10-20 09:15:00,59.7,54.9,29.99,North,10,0.0,7.0,84,0.00,,OVC060,0.00,VWS V14.01,2013-10-20 13:15:00,
2013-10-20 09:24:00,59.6,54.1,29.99,NW,322,0.0,4.0,82,0.00,,OVC060,0.00,VWS V14.01,2013-10-20 13:24:00,
2013-10-20 09:29:00,59.5,54.0,29.99,NNE,14,0.0,6.0,82,0.00,,OVC060,0.00,VWS V14.01,2013-10-20 13:29:00,
2013-10-20 09:30:00,59.4,53.9,29.99,NNE,13,1.0,6.0,82,0.00,,OVC060,0.00,VWS V14.01,2013-10-20 13:30:00,
2013-10-20 09:34:00,59.3,53.5,30.00,NNE,33,0.0,5.0,81,0.00,,OVC060,0.00,VWS V14.01,2013-10-20 13:34:00,
2013-10-20 09:39:00,59.2,53.4,30.00,West,259,0.0,5.0,81,0.00,,OVC060,0.00,VWS V14.01,2013-10-20 13:39:00,
2013-10-20 09:44:00,59.2,53.4,30.00,NW,305,0.0,5.0,81,0.00,,OVC060,0.00,VWS V14.01,2013-10-20 13:44:00,
2013-10-20 09:45:00,59.2,53.4,30.00,NW,305,0.0,5.0,81,0.00,,OVC060,0.00,VWS V14.01,2013-10-20 13:45:00,
2013-10-20 09:49:00,59.2,53.4,30.00,North,360,0.0,2.0,81,0.00,,OVC060,0.00,VWS V14.01,2013-10-20 13:49:00,
2013-10-20 09:54:00,59.3,53.8,30.00,North,355,0.0,2.0,82,0.00,,OVC060,0.00,VWS V14.01,2013-10-20 13:54:00,
2013-10-20 09:59:00,59.4,53.6,30.00,NW,325,0.0,2.0,81,0.00,,OVC060,0.00,VWS V14.01,2013-10-20 13:59:00,
2013-10-20 10:00:00,59.4,53.6,30.00,NW,325,0.0,2.0,81,0.00,,OVC060,0.00,VWS V14.01,2013-10-20 14:00:00,
2013-10-20 10:04:00,59.5,54.0,30.00,NW,325,1.0,1.0,82,0.00,,OVC060,0.00,VWS V14.01,2013-10-20 14:04:00,
2013-10-20 10:09:00,59.8,54.0,30.00,North,349,1.0,2.0,81,0.00,,OVC060,0.00,VWS V14.01,2013-10-20 14:09:00,
2013-10-20 10:14:00,60.3,54.5,30.01,North,349,0.0,2.0,81,0.00,,OVC060,0.00,VWS V14.01,2013-10-20 14:14:00,
2013-10-20 10:15:00,60.3,54.5,30.01,NE,34,4.0,5.0,81,0.00,,OVC060,0.00,VWS V14.01,2013-10-20 14:15:00,
2013-10-20 10:19:00,60.7,53.8,30.01,NNE,12,1.0,7.0,78,0.00,,OVC060,0.00,VWS V14.01,2013-10-20 14:19:00,
2013-10-20 10:24:00,61.0,53.8,30.00,WNW,295,0.0,7.0,77,0.00,,OVC060,0.00,VWS V14.01,2013-10-20 14:24:00,
2013-10-20 10:29:00,61.3,54.0,30.00,WNW,298,5.0,7.0,77,0.00,,OVC060,0.00,VWS V14.01,2013-10-20 14:29:00,
2013-10-20 10:30:00,61.4,54.1,30.00,NNW,340,1.0,7.0,77,0.00,,OVC060,0.00,VWS V14.01,2013-10-20 14:30:00,
2013-10-20 10:34:00,61.6,53.6,30.00,NNE,24,0.0,5.0,75,0.00,,OVC060,0.00,VWS V14.01,2013-10-20 14:34:00,
2013-10-20 10:39:00,61.7,53.7,30.00,NNE,30,0.0,5.0,75,0.00,,OVC060,0.00,VWS V14.01,2013-10-20 14:39:00,
2013-10-20 10:45:00,62.0,54.4,30.01,NE,42,2.0,5.0,76,0.00,,OVC060,0.00,VWS V14.01,2013-10-20 14:45:00,
2013-10-20 10:50:00,62.3,54.3,30.01,NNE,18,0.0,2.0,75,0.00,,OVC060,0.00,VWS V14.01,2013-10-20 14:50:00,
2013-10-20 10:55:00,62.5,53.7,30.01,ENE,61,4.0,4.0,73,0.00,,OVC060,0.00,VWS V14.01,2013-10-20 14:55:00,
2013-10-20 11:00:00,62.8,54.4,30.01,ESE,102,4.0,5.0,74,0.00,,OVC060,0.00,VWS V14.01,2013-10-20 15:00:00,
2013-10-20 11:05:00,63.0,54.2,30.01,NNW,348,2.0,6.0,73,0.00,,OVC060,0.00,VWS V14.01,2013-10-20 15:05:00,
2013-10-20 11:10:00,63.1,53.9,30.01,ENE,75,0.0,7.0,72,0.00,,OVC060,0.00,VWS V14.01,2013-10-20 15:10:00,
2013-10-20 11:15:00,63.3,54.5,30.01,SSE,156,1.0,7.0,73,0.00,,OVC060,0.00,VWS V14.01,2013-10-20 15:15:00,
2013-10-20 11:20:00,63.6,55.2,30.01,ENE,57,0.0,4.0,74,0.00,,OVC060,0.00,VWS V14.01,2013-10-20 15:20:00,
2013-10-20 11:25:00,63.9,54.3,30.01,NE,45,0.0,4.0,71,0.00,,OVC060,0.00,VWS V14.01,2013-10-20 15:25:00,
2013-10-20 11:30:00,63.9,54.3,30.01,East,84,0.0,4.0,71,0.00,,OVC060,0.00,VWS V14.01,2013-10-20 15:30:00,
2013-10-20 11:35:00,64.1,54.5,30.01,NNW,333,0.0,4.0,71,0.00,,OVC060,0.00,VWS V14.01,2013-10-20 15:35:00,
2013-10-20 11:40:00,64.3,54.7,30.01,NNE,30,2.0,6.0,71,0.00,,OVC060,0.00,VWS V14.01,2013-10-20 15:40:00,
2013-10-20 11:45:00,64.4,55.6,30.01,West,279,1.0,6.0,73,0.00,,OVC060,0.00,VWS V14.01,2013-10-20 15:45:00,
2013-10-20 11:50:00,64.6,55.4,30.01,NW,309,5.0,5.0,72,0.00,,OVC060,0.00,VWS V14.01,2013-10-20 15:50:00,
2013-10-20 11:55:00,64.7,54.7,30.01,ENE,71,0.0,6.0,70,0.00,,OVC060,0.00,VWS V14.01,2013-10-20 15:55:00,
2013-10-20 12:00:00,64.7,55.1,30.01,NNW,334,0.0,6.0,71,0.00,,OVC060,0.00,VWS V14.01,2013-10-20 16:00:00,
2013-10-20 12:05:00,65.0,55.8,30.01,North,355,1.0,5.0,72,0.00,,OVC060,0.00,VWS V14.01,2013-10-20 16:05:00,
2013-10-20 12:10:00,65.1,55.1,30.01,NE,53,0.0,6.0,70,0.00,,OVC060,0.00,VWS V14.01,2013-10-20 16:10:00,
2013-10-20 12:15:00,65.3,55.3,30.01,ENE,64,0.0,6.0,70,0.00,,OVC060,0.00,VWS V14.01,2013-10-20 16:15:00,
2013-10-20 12:20:00,65.6,55.6,30.01,ENE,64,0.0,1.0,70,0.00,,OVC060,0.00,VWS V14.01,2013-10-20 16:20:00,
2013-10-20 12:25:00,66.0,55.2,30.01,NE,40,2.0,4.0,68,0.00,,OVC060,0.00,VWS V14.01,2013-10-20 16:25:00,
2013-10-20 12:30:00,66.2,54.9,30.01,ENE,74,0.0,4.0,67,0.00,,OVC060,0.00,VWS V14.01,2013-10-20 16:30:00,
2013-10-20 12:35:00,66.3,55.0,30.01,NE,55,0.0,7.0,67,0.00,,OVC060,0.00,VWS V14.01,2013-10-20 16:35:00,
2013-10-20 12:45:00,66.4,56.3,30.01,NW,309,0.0,7.0,70,0.00,,OVC060,0.00,VWS V14.01,2013-10-20 16:45:00,
2013-10-20 12:50:00,66.6,54.9,30.01,East,87,0.0,2.0,66,0.00,,OVC060,0.00,VWS V14.01,2013-10-20 16:50:00,
2013-10-20 12:55:00,66.7,55.4,30.01,NE,46,0.0,2.0,67,0.00,,OVC060,0.00,VWS V14.01,2013-10-20 16:55:00,
2013-10-20 13:00:00,66.8,54.7,30.01,NE,56,0.0,4.0,65,0.00,,OVC060,0.00,VWS V14.01,2013-10-20 17:00:00,
2013-10-20 13:05:00,67.0,54.9,30.00,NE,44,0.0,5.0,65,0.00,,OVC060,0.00,VWS V14.01,2013-10-20 17:05:00,
2013-10-20 13:10:00,67.2,54.6,30.00,NNE,26,0.0,5.0,64,0.00,,OVC060,0.00,VWS V14.01,2013-10-20 17:10:00,
2013-10-20 13:15:00,67.4,55.2,30.00,NE,38,0.0,5.0,65,0.00,,OVC060,0.00,VWS V14.01,2013-10-20 17:15:00,
2013-10-20 13:16:00,67.3,55.2,30.00,NE,38,0.0,0.0,65,0.00,,OVC060,0.00,VWS V14.01,2013-10-20 17:16:00,
2013-10-20 13:21:00,67.3,54.7,30.00,SSE,152,1.0,5.0,64,0.00,,OVC060,0.00,VWS V14.01,2013-10-20 17:21:00,
2013-10-20 13:26:00,67.6,56.3,30.00,SE,134,0.0,5.0,67,0.00,,OVC060,0.00,VWS V14.01,2013-10-20 17:26:00,
2013-10-20 13:30:00,67.7,54.7,29.99,ESE,104,0.0,5.0,63,0.00,,OVC060,0.00,VWS V14.01,2013-10-20 17:30:00,
2013-10-20 13:31:00,67.7,55.1,29.99,ESE,103,0.0,0.0,64,0.00,,OVC060,0.00,VWS V14.01,2013-10-20 17:31:00,
2013-10-20 13:36:00,68.1,55.5,30.00,ESE,119,0.0,1.0,64,0.00,,OVC060,0.00,VWS V14.01,2013-10-20 17:36:00,
2013-10-20 13:41:00,68.6,56.0,29.99,ESE,117,0.0,1.0,64,0.00,,OVC060,0.00,VWS V14.01,2013-10-20 17:41:00,
2013-10-20 13:45:00,69.0,55.9,29.99,East,80,0.0,1.0,63,0.00,,OVC060,0.00,VWS V14.01,2013-10-20 17:45:00,
2013-10-20 13:46:00,69.1,56.0,29.99,East,80,0.0,0.0,63,0.00,,OVC060,0.00,VWS V14.01,2013-10-20 17:46:00,
2013-10-20 13:51:00,69.2,55.6,29.98,ENE,78,0.0,2.0,62,0.00,,OVC060,0.00,VWS V14.01,2013-10-20 17:51:00,
2013-10-20 13:56:00,69.2,55.2,29.98,ENE,59,0.0,4.0,61,0.00,,OVC060,0.00,VWS V14.01,2013-10-20 17:56:00,
2013-10-20 14:00:00,68.9,54.9,29.98,NE,38,0.0,4.0,61,0.00,,OVC060,0.00,VWS V14.01,2013-10-20 18:00:00,
2013-10-20 14:01:00,68.9,54.9,29.98,NE,38,0.0,1.0,61,0.00,,OVC060,0.00,VWS V14.01,2013-10-20 18:01:00,
2013-10-20 14:06:00,69.0,55.5,29.98,NE,38,0.0,1.0,62,0.00,,OVC060,0.00,VWS V14.01,2013-10-20 18:06:00,
2013-10-20 14:11:00,69.4,56.3,29.97,NW,314,0.0,2.0,63,0.00,,OVC060,0.00,VWS V14.01,2013-10-20 18:11:00,
2013-10-20 14:15:00,69.8,57.9,29.97,NW,314,0.0,2.0,66,0.00,,OVC060,0.00,VWS V14.01,2013-10-20 18:15:00,
2013-10-20 14:16:00,69.8,57.1,29.97,NW,314,0.0,0.0,64,0.00,,OVC060,0.00,VWS V14.01,2013-10-20 18:16:00,
2013-10-20 14:21:00,70.1,57.4,29.97,NW,317,0.0,1.0,64,0.00,,OVC060,0.00,VWS V14.01,2013-10-20 18:21:00,
2013-10-20 14:26:00,69.9,56.3,29.97,ENE,57,0.0,2.0,62,0.00,,OVC060,0.00,VWS V14.01,2013-10-20 18:26:00,
2013-10-20 14:30:00,69.5,55.9,29.97,NNW,342,0.0,2.0,62,0.00,,OVC060,0.00,VWS V14.01,2013-10-20 18:30:00,
2013-10-20 14:31:00,69.5,56.4,29.97,NNW,342,0.0,0.0,63,0.00,,OVC060,0.00,VWS V14.01,2013-10-20 18:31:00,
2013-10-20 14:36:00,69.8,57.1,29.96,North,11,1.0,2.0,64,0.00,,OVC060,0.00,VWS V14.01,2013-10-20 18:36:00,
2013-10-20 14:41:00,69.9,57.2,29.97,ENE,61,0.0,2.0,64,0.00,,OVC060,0.00,VWS V14.01,2013-10-20 18:41:00,
2013-10-20 14:45:00,70.0,56.4,29.97,ENE,71,1.0,2.0,62,0.00,,OVC060,0.00,VWS V14.01,2013-10-20 18:45:00,
2013-10-20 14:46:00,70.0,56.8,29.97,ENE,71,0.0,1.0,63,0.00,,OVC060,0.00,VWS V14.01,2013-10-20 18:46:00,
2013-10-20 14:51:00,69.9,57.2,29.96,ENE,71,0.0,1.0,64,0.00,,OVC060,0.00,VWS V14.01,2013-10-20 18:51:00,
2013-10-20 14:56:00,69.8,57.9,29.96,ENE,71,0.0,1.0,66,0.00,,OVC060,0.00,VWS V14.01,2013-10-20 18:56:00,
2013-10-20 15:00:00,69.9,57.2,29.96,ENE,71,0.0,1.0,64,0.00,,OVC060,0.00,VWS V14.01,2013-10-20 19:00:00,
2013-10-20 15:01:00,69.9,56.8,29.96,East,98,0.0,1.0,63,0.00,,OVC060,0.00,VWS V14.01,2013-10-20 19:01:00,
2013-10-20 15:06:00,70.1,56.9,29.96,ENE,60,0.0,2.0,63,0.00,,OVC060,0.00,VWS V14.01,2013-10-20 19:06:00,
2013-10-20 15:11:00,70.2,57.0,29.96,NNE,24,0.0,2.0,63,0.00,,OVC060,0.00,VWS V14.01,2013-10-20 19:11:00,
2013-10-20 15:15:00,70.4,57.7,29.96,NNE,24,0.0,2.0,64,0.00,,OVC060,0.00,VWS V14.01,2013-10-20 19:15:00,
2013-10-20 15:16:00,70.4,57.2,29.96,NNE,24,0.0,0.0,63,0.00,,OVC060,0.00,VWS V14.01,2013-10-20 19:16:00,
2013-10-20 15:21:00,70.6,57.8,29.96,NNE,24,0.0,1.0,64,0.00,,OVC060,0.00,VWS V14.01,2013-10-20 19:21:00,
2013-10-20 15:26:00,70.8,57.2,29.96,NNE,24,0.0,2.0,62,0.00,,OVC060,0.00,VWS V14.01,2013-10-20 19:26:00,
2013-10-20 15:30:00,70.8,57.2,29.96,NNE,24,0.0,2.0,62,0.00,,OVC060,0.00,VWS V14.01,2013-10-20 19:30:00,
2013-10-20 15:31:00,70.8,57.2,29.96,NNE,24,0.0,0.0,62,0.00,,OVC060,0.00,VWS V14.01,2013-10-20 19:31:00,
2013-10-20 15:36:00,70.9,56.8,29.96,NNE,24,0.0,1.0,61,0.00,,OVC060,0.00,VWS V14.01,2013-10-20 19:36:00,
2013-10-20 15:41:00,70.4,56.8,29.96,NE,42,0.0,4.0,62,0.00,,OVC060,0.00,VWS V14.01,2013-10-20 19:41:00,
2013-10-20 15:45:00,70.2,57.0,29.96,NE,42,0.0,4.0,63,0.00,,OVC060,0.00,VWS V14.01,2013-10-20 19:45:00,
2013-10-20 15:46:00,70.2,56.6,29.96,NE,42,0.0,0.0,62,0.00,,OVC060,0.00,VWS V14.01,2013-10-20 19:46:00,
2013-10-20 15:52:00,70.1,57.8,29.96,ENE,75,0.0,2.0,65,0.00,,OVC060,0.00,VWS V14.01,2013-10-20 19:52:00,
2013-10-20 15:57:00,69.9,56.3,29.96,ENE,65,0.0,2.0,62,0.00,,OVC060,0.00,VWS V14.01,2013-10-20 19:57:00,
2013-10-20 16:00:00,69.5,56.8,29.96,ENE,65,0.0,2.0,64,0.00,,OVC060,0.00,VWS V14.01,2013-10-20 20:00:00,
2013-10-20 16:02:00,69.5,56.4,29.96,ENE,65,0.0,0.0,63,0.00,,OVC060,0.00,VWS V14.01,2013-10-20 20:02:00,
2013-10-20 16:07:00,69.3,56.6,29.96,ENE,65,0.0,0.0,64,0.00,,OVC060,0.00,VWS V14.01,2013-10-20 20:07:00,
2013-10-20 16:12:00,69.3,57.5,29.96,ENE,65,0.0,0.0,66,0.00,,OVC060,0.00,VWS V14.01,2013-10-20 20:12:00,
2013-10-20 16:15:00,69.3,57.5,29.96,ENE,65,0.0,0.0,66,0.00,,OVC060,0.00,VWS V14.01,2013-10-20 20:15:00,
2013-10-20 16:17:00,69.2,57.4,29.96,ENE,65,0.0,0.0,66,0.00,,OVC060,0.00,VWS V14.01,2013-10-20 20:17:00,
2013-10-20 16:22:00,69.1,57.7,29.96,ENE,65,0.0,0.0,67,0.00,,OVC060,0.00,VWS V14.01,2013-10-20 20:22:00,
2013-10-20 16:27:00,68.9,57.9,29.97,ENE,65,0.0,0.0,68,0.00,,OVC060,0.00,VWS V14.01,2013-10-20 20:27:00,
2013-10-20 16:30:00,68.9,57.9,29.97,ENE,65,0.0,0.0,68,0.00,,OVC060,0.00,VWS V14.01,2013-10-20 20:30:00,
2013-10-20 16:32:00,68.8,57.4,29.97,ENE,65,0.0,0.0,67,0.00,,OVC060,0.00,VWS V14.01,2013-10-20 20:32:00,
2013-10-20 16:37:00,68.8,57.8,29.96,ENE,65,0.0,0.0,68,0.00,,OVC060,0.00,VWS V14.01,2013-10-20 20:37:00,
2013-10-20 16:42:00,68.8,57.8,29.97,ENE,65,0.0,0.0,68,0.00,,OVC060,0.00,VWS V14.01,2013-10-20 20:42:00,
2013-10-20 16:45:00,68.7,57.7,29.97,ENE,65,0.0,0.0,68,0.00,,OVC060,0.00,VWS V14.01,2013-10-20 20:45:00,
2013-10-20 16:47:00,68.7,58.1,29.97,ENE,65,0.0,0.0,69,0.00,,OVC060,0.00,VWS V14.01,2013-10-20 20:47:00,
2013-10-20 16:52:00,68.6,58.0,29.97,ENE,65,0.0,0.0,69,0.00,,OVC060,0.00,VWS V14.01,2013-10-20 20:52:00,
2013-10-20 16:57:00,68.5,57.9,29.97,ENE,65,0.0,0.0,69,0.00,,OVC060,0.00,VWS V14.01,2013-10-20 20:57:00,
2013-10-20 17:00:00,68.5,57.9,29.97,ENE,65,0.0,0.0,69,0.00,,OVC060,0.00,VWS V14.01,2013-10-20 21:00:00,
2013-10-20 17:02:00,68.5,58.3,29.97,ENE,65,0.0,0.0,70,0.00,,OVC060,0.00,VWS V14.01,2013-10-20 21:02:00,
2013-10-20 17:07:00,68.3,57.8,29.97,ENE,65,0.0,0.0,69,0.00,,OVC060,0.00,VWS V14.01,2013-10-20 21:07:00,
2013-10-20 17:12:00,68.2,58.0,29.97,ENE,65,0.0,0.0,70,0.00,,OVC060,0.00,VWS V14.01,2013-10-20 21:12:00,
2013-10-20 17:15:00,68.1,58.0,29.97,ENE,65,0.0,0.0,70,0.00,,OVC060,0.00,VWS V14.01,2013-10-20 21:15:00,
2013-10-20 17:17:00,68.0,58.3,29.97,ENE,65,0.0,0.0,71,0.00,,OVC060,0.00,VWS V14.01,2013-10-20 21:17:00,
2013-10-20 17:22:00,67.9,57.8,29.97,ENE,65,0.0,0.0,70,0.00,,OVC060,0.00,VWS V14.01,2013-10-20 21:22:00,
2013-10-20 17:27:00,67.7,57.6,29.97,ENE,65,0.0,0.0,70,0.00,,OVC060,0.00,VWS V14.01,2013-10-20 21:27:00,
2013-10-20 17:30:00,67.5,57.8,29.97,ENE,65,0.0,0.0,71,0.00,,OVC060,0.00,VWS V14.01,2013-10-20 21:30:00,
2013-10-20 17:32:00,67.5,58.2,29.97,ENE,65,0.0,0.0,72,0.00,,OVC060,0.00,VWS V14.01,2013-10-20 21:32:00,
2013-10-20 17:37:00,67.2,57.9,29.97,ENE,65,0.0,0.0,72,0.00,,OVC060,0.00,VWS V14.01,2013-10-20 21:37:00,
2013-10-20 17:42:00,67.0,57.7,29.97,ENE,65,0.0,0.0,72,0.00,,OVC060,0.00,VWS V14.01,2013-10-20 21:42:00,
2013-10-20 17:45:00,66.9,58.0,29.97,ENE,65,0.0,0.0,73,0.00,,OVC060,0.00,VWS V14.01,2013-10-20 21:45:00,
2013-10-20 17:47:00,66.8,58.3,29.97,ENE,65,0.0,0.0,74,0.00,,OVC060,0.00,VWS V14.01,2013-10-20 21:47:00,
2013-10-20 17:52:00,66.6,57.7,29.97,ENE,65,0.0,0.0,73,0.00,,OVC060,0.00,VWS V14.01,2013-10-20 21:52:00,
2013-10-20 17:57:00,66.3,57.8,29.97,ENE,65,0.0,0.0,74,0.00,,OVC060,0.00,VWS V14.01,2013-10-20 21:57:00,
2013-10-20 18:00:00,66.2,58.0,29.98,ENE,65,0.0,0.0,75,0.00,,OVC060,0.00,VWS V14.01,2013-10-20 22:00:00,
2013-10-20 18:02:00,66.1,58.0,29.98,ENE,65,0.0,0.0,75,0.00,,OVC060,0.00,VWS V14.01,2013-10-20 22:02:00,
2013-10-20 18:07:00,65.9,58.5,29.98,ENE,65,0.0,0.0,77,0.00,,OVC060,0.00,VWS V14.01,2013-10-20 22:07:00,
2013-10-20 18:12:00,65.7,58.7,29.97,ENE,65,0.0,0.0,78,0.00,,OVC060,0.00,VWS V14.01,2013-10-20 22:12:00,
2013-10-20 18:15:00,65.6,58.6,29.97,ENE,65,0.0,0.0,78,0.00,,OVC060,0.00,VWS V14.01,2013-10-20 22:15:00,
2013-10-20 18:17:00,65.5,58.5,29.97,ENE,65,0.0,0.0,78,0.00,,OVC060,0.00,VWS V14.01,2013-10-20 22:17:00,
2013-10-20 18:22:00,65.3,58.3,29.98,ENE,65,0.0,0.0,78,0.00,,OVC060,0.00,VWS V14.01,2013-10-20 22:22:00,
2013-10-20 18:27:00,65.0,58.0,29.98,ENE,65,0.0,0.0,78,0.00,,OVC060,0.00,VWS V14.01,2013-10-20 22:27:00,
2013-10-20 18:30:00,64.7,57.7,29.98,ENE,65,0.0,0.0,78,0.00,,OVC060,0.00,VWS V14.01,2013-10-20 22:30:00,
2013-10-20 18:32:00,64.6,58.0,29.98,ENE,65,0.0,0.0,79,0.00,,OVC060,0.00,VWS V14.01,2013-10-20 22:32:00,
2013-10-20 18:37:00,64.3,57.7,29.98,ENE,65,0.0,0.0,79,0.00,,OVC060,0.00,VWS V14.01,2013-10-20 22:37:00,
2013-10-20 18:42:00,63.9,57.6,29.99,ENE,65,0.0,0.0,80,0.00,,OVC060,0.00,VWS V14.01,2013-10-20 22:42:00,
2013-10-20 18:45:00,63.7,57.4,29.99,ENE,65,0.0,0.0,80,0.00,,OVC060,0.00,VWS V14.01,2013-10-20 22:45:00,
2013-10-20 18:47:00,63.5,57.6,29.99,ENE,65,0.0,0.0,81,0.00,,OVC060,0.00,VWS V14.01,2013-10-20 22:47:00,
2013-10-20 18:53:00,63.2,56.9,29.99,ENE,65,0.0,0.0,80,0.00,,OVC060,0.00,VWS V14.01,2013-10-20 22:53:00,
2013-10-20 18:58:00,62.9,57.0,29.99,ENE,65,0.0,0.0,81,0.00,,OVC060,0.00,VWS V14.01,2013-10-20 22:58:00,
2013-10-20 19:00:00,62.7,56.8,29.99,ENE,65,0.0,0.0,81,0.00,,OVC060,0.00,VWS V14.01,2013-10-20 23:00:00,
2013-10-20 19:03:00,62.5,56.9,29.99,ENE,65,0.0,0.0,82,0.00,,OVC060,0.00,VWS V14.01,2013-10-20 23:03:00,
2013-10-20 19:08:00,62.2,56.6,29.99,ENE,65,0.0,0.0,82,0.00,,OVC060,0.00,VWS V14.01,2013-10-20 23:08:00,
2013-10-20 19:13:00,62.0,56.8,29.99,ENE,65,0.0,0.0,83,0.00,,OVC060,0.00,VWS V14.01,2013-10-20 23:13:00,
2013-10-20 19:15:00,61.8,56.9,29.99,ENE,65,0.0,0.0,84,0.00,,OVC060,0.00,VWS V14.01,2013-10-20 23:15:00,
2013-10-20 19:18:00,61.7,56.8,29.99,ENE,65,0.0,0.0,84,0.00,,OVC060,0.00,VWS V14.01,2013-10-20 23:18:00,
2013-10-20 19:23:00,61.5,56.6,29.99,ENE,65,0.0,0.0,84,0.00,,OVC060,0.00,VWS V14.01,2013-10-20 23:23:00,
2013-10-20 19:28:00,61.3,56.8,30.00,ENE,65,0.0,0.0,85,0.00,,OVC060,0.00,VWS V14.01,2013-10-20 23:28:00,
2013-10-20 19:30:00,61.1,56.6,30.00,ENE,65,0.0,0.0,85,0.00,,OVC060,0.00,VWS V14.01,2013-10-20 23:30:00,
2013-10-20 19:33:00,61.1,56.9,30.00,ENE,65,0.0,0.0,86,0.00,,OVC060,0.00,VWS V14.01,2013-10-20 23:33:00,
2013-10-20 19:38:00,60.9,56.4,30.00,ENE,65,0.0,0.0,85,0.00,,OVC060,0.00,VWS V14.01,2013-10-20 23:38:00,
2013-10-20 19:43:00,60.7,56.5,30.00,ENE,65,0.0,0.0,86,0.00,,OVC060,0.00,VWS V14.01,2013-10-20 23:43:00,
2013-10-20 19:45:00,60.6,56.4,30.00,ENE,65,0.0,0.0,86,0.00,,OVC060,0.00,VWS V14.01,2013-10-20 23:45:00,
2013-10-20 19:48:00,60.5,56.6,30.00,ENE,65,0.0,0.0,87,0.00,,OVC060,0.00,VWS V14.01,2013-10-20 23:48:00,
2013-10-20 19:53:00,60.4,56.5,30.00,ENE,65,0.0,0.0,87,0.00,,OVC060,0.00,VWS V14.01,2013-10-20 23:53:00,
2013-10-20 19:58:00,60.2,56.3,30.00,ENE,65,0.0,0.0,87,0.00,,OVC060,0.00,VWS V14.01,2013-10-20 23:58:00,
2013-10-20 20:00:00,60.2,56.3,30.00,ENE,65,0.0,0.0,87,0.00,,OVC060,0.00,VWS V14.01,2013-10-21 00:00:00,
2013-10-20 20:03:00,60.1,56.2,30.00,ENE,65,0.0,0.0,87,0.00,,OVC060,0.00,VWS V14.01,2013-10-21 00:03:00,
2013-10-20 20:08:00,59.9,56.0,30.00,ENE,65,0.0,0.0,87,0.00,,OVC060,0.00,VWS V14.01,2013-10-21 00:08:00,
2013-10-20 20:13:00,59.8,56.2,30.00,ENE,65,0.0,0.0,88,0.00,,OVC060,0.00,VWS V14.01,2013-10-21 00:13:00,
2013-10-20 20:15:00,59.8,56.2,30.00,ENE,65,0.0,0.0,88,0.00,,OVC060,0.00,VWS V14.01,2013-10-21 00:15:00,
2013-10-20 20:18:00,59.8,56.2,30.00,ENE,65,0.0,0.0,88,0.00,,OVC060,0.00,VWS V14.01,2013-10-21 00:18:00,
2013-10-20 20:23:00,59.6,56.0,30.00,ENE,65,0.0,0.0,88,0.00,,OVC060,0.00,VWS V14.01,2013-10-21 00:23:00,
2013-10-20 20:28:00,59.5,56.0,30.01,ENE,65,0.0,0.0,88,0.00,,OVC060,0.00,VWS V14.01,2013-10-21 00:28:00,
2013-10-20 20:30:00,59.4,55.8,30.01,ENE,65,0.0,0.0,88,0.00,,OVC060,0.00,VWS V14.01,2013-10-21 00:30:00,
2013-10-20 20:33:00,59.4,55.8,30.01,ENE,65,0.0,0.0,88,0.00,,OVC060,0.00,VWS V14.01,2013-10-21 00:33:00,
2013-10-20 20:38:00,59.2,55.7,30.01,ENE,65,0.0,0.0,88,0.00,,OVC060,0.00,VWS V14.01,2013-10-21 00:38:00,
2013-10-20 20:43:00,59.0,55.5,30.01,ENE,65,0.0,0.0,88,0.00,,OVC060,0.00,VWS V14.01,2013-10-21 00:43:00,
2013-10-20 20:45:00,59.0,55.8,30.01,ENE,65,0.0,0.0,89,0.00,,OVC060,0.00,VWS V14.01,2013-10-21 00:45:00,
2013-10-20 20:48:00,59.0,55.5,30.02,ENE,65,0.0,0.0,88,0.00,,OVC060,0.00,VWS V14.01,2013-10-21 00:48:00,
2013-10-20 20:53:00,59.0,55.8,30.02,ENE,65,0.0,0.0,89,0.00,,OVC060,0.00,VWS V14.01,2013-10-21 00:53:00,
2013-10-20 20:58:00,59.0,55.8,30.02,ENE,65,0.0,0.0,89,0.00,,OVC060,0.00,VWS V14.01,2013-10-21 00:58:00,
2013-10-20 21:00:00,59.0,55.8,30.02,ENE,65,0.0,0.0,89,0.00,,OVC060,0.00,VWS V14.01,2013-10-21 01:00:00,
2013-10-20 21:03:00,59.0,56.7,30.02,ENE,65,0.0,0.0,92,0.00,,OVC060,0.00,VWS V14.01,2013-10-21 01:03:00,
2013-10-20 21:08:00,58.9,55.7,30.02,ENE,65,0.0,0.0,89,0.00,,OVC060,0.00,VWS V14.01,2013-10-21 01:08:00,
2013-10-20 21:13:00,58.9,56.0,30.02,ENE,65,0.0,0.0,90,0.00,,OVC060,0.00,VWS V14.01,2013-10-21 01:13:00,
2013-10-20 21:15:00,58.8,55.9,30.02,ENE,65,0.0,0.0,90,0.00,,OVC060,0.00,VWS V14.01,2013-10-21 01:15:00,
2013-10-20 21:18:00,58.8,55.9,30.02,ENE,65,0.0,0.0,90,0.00,,OVC060,0.00,VWS V14.01,2013-10-21 01:18:00,
2013-10-20 21:23:00,58.8,55.9,30.02,ENE,65,0.0,0.0,90,0.00,,OVC060,0.00,VWS V14.01,2013-10-21 01:23:00,
2013-10-20 21:28:00,58.8,55.9,30.02,ENE,65,0.0,0.0,90,0.00,,OVC060,0.00,VWS V14.01,2013-10-21 01:28:00,
2013-10-20 21:30:00,58.7,55.8,30.02,ENE,65,0.0,0.0,90,0.00,,OVC060,0.00,VWS V14.01,2013-10-21 01:30:00,
2013-10-20 21:33:00,58.7,55.5,30.02,ENE,65,0.0,0.0,89,0.00,,OVC060,0.00,VWS V14.01,2013-10-21 01:33:00,
2013-10-20 21:38:00,58.7,55.5,30.02,ENE,65,0.0,0.0,89,0.00,,OVC060,0.00,VWS V14.01,2013-10-21 01:38:00,
2013-10-20 21:43:00,58.7,55.5,30.02,ENE,65,0.0,0.0,89,0.00,,OVC060,0.00,VWS V14.01,2013-10-21 01:43:00,
2013-10-20 21:45:00,58.7,55.5,30.03,ENE,65,0.0,0.0,89,0.00,,OVC060,0.00,VWS V14.01,2013-10-21 01:45:00,
2013-10-20 21:48:00,58.9,55.7,30.03,ENE,65,0.0,0.0,89,0.00,,OVC060,0.00,VWS V14.01,2013-10-21 01:48:00,
2013-10-20 21:54:00,59.0,56.1,30.03,ENE,65,0.0,0.0,90,0.00,,OVC060,0.00,VWS V14.01,2013-10-21 01:54:00,
2013-10-20 21:59:00,59.0,56.1,30.03,ENE,65,0.0,0.0,90,0.00,,OVC060,0.00,VWS V14.01,2013-10-21 01:59:00,
2013-10-20 22:00:00,59.0,56.1,30.03,ENE,65,0.0,0.0,90,0.00,,OVC060,0.00,VWS V14.01,2013-10-21 02:00:00,
2013-10-20 22:04:00,59.0,55.8,30.03,ENE,65,0.0,0.0,89,0.00,,OVC060,0.00,VWS V14.01,2013-10-21 02:04:00,
2013-10-20 22:09:00,58.9,55.7,30.03,ENE,65,0.0,0.0,89,0.00,,OVC060,0.00,VWS V14.01,2013-10-21 02:09:00,
2013-10-20 22:14:00,58.9,56.0,30.03,ENE,65,0.0,0.0,90,0.00,,OVC060,0.00,VWS V14.01,2013-10-21 02:14:00,
2013-10-20 22:15:00,58.9,56.0,30.03,ENE,65,0.0,0.0,90,0.00,,OVC060,0.00,VWS V14.01,2013-10-21 02:15:00,
2013-10-20 22:19:00,58.8,55.9,30.04,ENE,65,0.0,0.0,90,0.00,,OVC060,0.00,VWS V14.01,2013-10-21 02:19:00,
2013-10-20 22:24:00,58.7,55.8,30.03,ENE,65,0.0,0.0,90,0.00,,OVC060,0.00,VWS V14.01,2013-10-21 02:24:00,
2013-10-20 22:29:00,58.6,55.4,30.03,ENE,65,0.0,0.0,89,0.00,,OVC060,0.00,VWS V14.01,2013-10-21 02:29:00,
2013-10-20 22:30:00,58.6,55.4,30.03,ENE,65,0.0,0.0,89,0.00,,OVC060,0.00,VWS V14.01,2013-10-21 02:30:00,
2013-10-20 22:34:00,58.6,55.4,30.03,ENE,65,0.0,0.0,89,0.00,,OVC060,0.00,VWS V14.01,2013-10-21 02:34:00,
2013-10-20 22:39:00,58.6,55.7,30.03,ENE,65,0.0,0.0,90,0.00,,OVC060,0.00,VWS V14.01,2013-10-21 02:39:00,
2013-10-20 22:44:00,58.5,55.6,30.03,ENE,65,0.0,0.0,90,0.00,,OVC060,0.00,VWS V14.01,2013-10-21 02:44:00,
2013-10-20 22:45:00,58.5,55.6,30.03,ENE,65,0.0,0.0,90,0.00,,OVC060,0.00,VWS V14.01,2013-10-21 02:45:00,
2013-10-20 22:49:00,58.4,55.5,30.03,ENE,65,0.0,0.0,90,0.00,,OVC060,0.00,VWS V14.01,2013-10-21 02:49:00,
2013-10-20 22:54:00,58.2,55.3,30.03,ENE,65,0.0,0.0,90,0.00,,OVC060,0.00,VWS V14.01,2013-10-21 02:54:00,
2013-10-20 22:59:00,58.0,55.1,30.03,ENE,65,0.0,0.0,90,0.00,,OVC060,0.00,VWS V14.01,2013-10-21 02:59:00,
2013-10-20 23:00:00,57.9,55.0,30.03,ENE,65,0.0,0.0,90,0.00,,OVC060,0.00,VWS V14.01,2013-10-21 03:00:00,
2013-10-20 23:04:00,57.8,54.9,30.03,ENE,65,0.0,0.0,90,0.00,,OVC060,0.00,VWS V14.01,2013-10-21 03:04:00,
2013-10-20 23:09:00,57.7,55.1,30.03,ENE,65,0.0,0.0,91,0.00,,OVC060,0.00,VWS V14.01,2013-10-21 03:09:00,
2013-10-20 23:14:00,57.6,55.0,30.03,ENE,65,0.0,0.0,91,0.00,,OVC060,0.00,VWS V14.01,2013-10-21 03:14:00,
2013-10-20 23:15:00,57.5,54.9,30.03,ENE,65,0.0,0.0,91,0.00,,OVC060,0.00,VWS V14.01,2013-10-21 03:15:00,
2013-10-20 23:19:00,57.4,54.8,30.03,ENE,65,0.0,0.0,91,0.00,,OVC060,0.00,VWS V14.01,2013-10-21 03:19:00,
2013-10-20 23:24:00,57.3,54.7,30.03,ENE,65,0.0,0.0,91,0.00,,OVC060,0.00,VWS V14.01,2013-10-21 03:24:00,
2013-10-20 23:29:00,57.2,54.9,30.04,ENE,65,0.0,0.0,92,0.00,,OVC060,0.00,VWS V14.01,2013-10-21 03:29:00,
2013-10-20 23:30:00,57.2,54.9,30.04,ENE,65,0.0,0.0,92,0.00,,OVC060,0.00,VWS V14.01,2013-10-21 03:30:00,
2013-10-20 23:34:00,57.2,54.9,30.03,ENE,65,0.0,0.0,92,0.00,,OVC060,0.00,VWS V14.01,2013-10-21 03:34:00,
2013-10-20 23:39:00,57.1,54.8,30.04,ENE,65,0.0,0.0,92,0.00,,OVC060,0.00,VWS V14.01,2013-10-21 03:39:00,
2013-10-20 23:44:00,57.0,54.7,30.04,ENE,65,0.0,0.0,92,0.00,,OVC060,0.00,VWS V14.01,2013-10-21 03:44:00,
2013-10-20 23:45:00,57.0,54.7,30.03,ENE,65,0.0,0.0,92,0.00,,OVC060,0.00,VWS V14.01,2013-10-21 03:45:00,
2013-10-20 23:49:00,57.0,54.7,30.03,ENE,65,0.0,0.0,92,0.00,,OVC060,0.00,VWS V14.01,2013-10-21 03:49:00,
2013-10-20 23:54:00,56.9,54.6,30.04,ENE,65,0.0,0.0,92,0.00,,OVC060,0.00,VWS V14.01,2013-10-21 03:54:00,
2013-10-20 23:59:00,56.8,54.5,30.04,ENE,65,0.0,0.0,92,0.00,,OVC060,0.00,VWS V14.01,2013-10-21 03:59:00,